When you browse on this site, cookies collect data to enhance your experience and personalize the content and advertising you see.
Visit our Privacy Policy to learn more. By continuing to use the site, you agree to this use of cookies and data.
  • In Hungary
  • List of Countries
  • For 7 days
  • Water Temperature
  • Satellite Maps
  • Weather Map
  • News
  • Weather Widgets
  • user-avatar
    Login

    Hourly Weather Wiersze

    Today, 24 January, Thursday

    Time Temperature Precipitation Wind Pressure Humidity
    00:00 -9°C° 0 mm 4 mps 751 mmHg 66%
    01:00 -9°C° 0 mm 4 mps 752 mmHg 65%
    02:00 -9°C° 0 mm 4 mps 752 mmHg 66%
    03:00 -9°C° 0 mm 4 mps 752 mmHg 67%
    04:00 -9°C° 0 mm 4 mps 752 mmHg 68%
    05:00 -9°C° 0 mm 4 mps 752 mmHg 70%
    06:00 -9°C° 0 mm 4 mps 752 mmHg 71%
    07:00 -10°C° 0 mm 4 mps 753 mmHg 73%
    08:00 -9°C° 0 mm 4 mps 753 mmHg 71%
    09:00 -9°C° 0 mm 4 mps 753 mmHg 69%
    10:00 -9°C° 0 mm 4 mps 754 mmHg 67%
    11:00 -8°C° 0 mm 4 mps 754 mmHg 65%
    12:00 -8°C° 0 mm 4 mps 754 mmHg 63%
    13:00 -8°C° 0 mm 4 mps 754 mmHg 61%
    14:00 -8°C° 0 mm 4 mps 754 mmHg 63%
    15:00 -8°C° 0 mm 5 mps 754 mmHg 64%
    16:00 -8°C° 0 mm 5 mps 754 mmHg 66%
    17:00 -8°C° 0 mm 5 mps 754 mmHg 67%
    18:00 -8°C° 0 mm 5 mps 754 mmHg 69%
    19:00 -8°C° 0 mm 5 mps 754 mmHg 71%
    20:00 -8°C° 0 mm 5 mps 754 mmHg 71%
    21:00 -10°C° 0 mm 5 mps 754 mmHg 71%
    22:00 -10°C° 0 mm 5 mps 755 mmHg 71%
    23:00 -10°C° 0 mm 5 mps 754 mmHg 71%

    Tomorrow, 25 January, Friday

    Time Temperature Precipitation Wind Pressure Humidity
    00:00 -10°C° 0 mm 5 mps 754 mmHg 71%
    01:00 -10°C° 0 mm 5 mps 754 mmHg 71%
    02:00 -10°C° 0.1 mm 5 mps 754 mmHg 74%
    03:00 -9°C° 0.1 mm 4 mps 754 mmHg 76%
    04:00 -9°C° 0.1 mm 4 mps 753 mmHg 79%
    05:00 -9°C° 0.2 mm 4 mps 754 mmHg 80%
    06:00 -9°C° 0.2 mm 4 mps 754 mmHg 82%
    07:00 -9°C° 0.2 mm 4 mps 754 mmHg 83%
    08:00 -9°C° 0.3 mm 4 mps 754 mmHg 83%
    09:00 -9°C° 0.3 mm 4 mps 754 mmHg 84%
    10:00 -9°C° 0.3 mm 4 mps 754 mmHg 84%
    11:00 -8°C° 0.2 mm 3 mps 754 mmHg 83%
    12:00 -8°C° 0.2 mm 3 mps 754 mmHg 81%
    13:00 -8°C° 0.2 mm 3 mps 754 mmHg 79%
    14:00 -7°C° 0.1 mm 2 mps 754 mmHg 80%
    15:00 -6°C° 0.1 mm 1 mps 754 mmHg 81%
    16:00 -6°C° 0.1 mm 1 mps 754 mmHg 82%
    17:00 -6°C° 0.2 mm 1 mps 754 mmHg 84%
    18:00 -6°C° 0.2 mm 1 mps 754 mmHg 86%
    19:00 -6°C° 0.2 mm 1 mps 754 mmHg 88%
    20:00 -6°C° 0.1 mm 1 mps 754 mmHg 88%
    21:00 -7°C° 0.1 mm 2 mps 754 mmHg 89%
    22:00 -7°C° 0.1 mm 2 mps 754 mmHg 89%
    23:00 -7°C° 0 mm 2 mps 754 mmHg 89%

    Day after tomorrow, 26 January, Saturday

    Time Temperature Precipitation Wind Pressure Humidity
    00:00 -7°C° 0 mm 2 mps 754 mmHg 90%
    01:00 -7°C° 0 mm 2 mps 754 mmHg 90%
    02:00 -7°C° 0 mm 2 mps 754 mmHg 89%
    03:00 -8°C° 0 mm 3 mps 753 mmHg 89%
    04:00 -8°C° 0 mm 3 mps 753 mmHg 88%
    05:00 -8°C° 0 mm 3 mps 753 mmHg 87%
    06:00 -8°C° 0 mm 3 mps 753 mmHg 87%
    07:00 -8°C° 0 mm 3 mps 753 mmHg 87%
    08:00 -8°C° 0 mm 3 mps 752 mmHg 84%
    09:00 -8°C° 0 mm 4 mps 752 mmHg 82%
    10:00 -8°C° 0 mm 4 mps 751 mmHg 79%
    11:00 -7°C° 0.2 mm 4 mps 750 mmHg 81%
    12:00 -7°C° 0.2 mm 5 mps 749 mmHg 83%
    13:00 -7°C° 0.2 mm 5 mps 748 mmHg 84%
    14:00 -6°C° 0.7 mm 5 mps 747 mmHg 87%
    15:00 -6°C° 0.7 mm 5 mps 747 mmHg 90%
    16:00 -6°C° 0.7 mm 5 mps 746 mmHg 93%
    17:00 -4°C° 0.4 mm 5 mps 746 mmHg 93%
    18:00 -2°C° 0.4 mm 5 mps 745 mmHg 93%
    19:00 -2°C° 0.4 mm 6 mps 745 mmHg 93%
    20:00 0°C° 0.1 mm 5 mps 745 mmHg 94%
    21:00 0°C° 0.1 mm 5 mps 745 mmHg 95%
    22:00 0°C° 0.1 mm 5 mps 746 mmHg 95%
    23:00 -1°C° 0 mm 4 mps 746 mmHg 96%

    27 January, Sunday

    Time Temperature Precipitation Wind Pressure Humidity
    00:00 -1°C° 0 mm 3 mps 746 mmHg 96%
    01:00 -2°C° 0 mm 2 mps 747 mmHg 96%
    02:00 -2°C° 0 mm 2 mps 747 mmHg 96%
    03:00 -3°C° 0 mm 2 mps 747 mmHg 95%
    04:00 -1°C° 0 mm 1 mps 747 mmHg 95%
    05:00 -1°C° 0 mm 1 mps 747 mmHg 95%
    06:00 -3°C° 0 mm 2 mps 747 mmHg 95%
    07:00 -3°C° 0 mm 2 mps 747 mmHg 95%
    08:00 -2°C° 0.2 mm 2 mps 746 mmHg 96%
    09:00 -2°C° 0.2 mm 2 mps 746 mmHg 96%
    10:00 -1°C° 0.2 mm 2 mps 746 mmHg 97%
    11:00 0°C° 0.3 mm 3 mps 745 mmHg 97%
    12:00 0°C° 0.3 mm 3 mps 745 mmHg 98%
    13:00 0°C° 0.3 mm 3 mps 744 mmHg 98%
    14:00 0°C° 0 mm 3 mps 744 mmHg 97%
    15:00 0°C° 0 mm 3 mps 743 mmHg 96%
    16:00 0°C° 0 mm 3 mps 743 mmHg 95%
    17:00 0°C° 0 mm 3 mps 743 mmHg 93%
    18:00 -1°C° 0 mm 4 mps 743 mmHg 92%
    19:00 -1°C° 0 mm 4 mps 742 mmHg 91%
    20:00 -1°C° 0 mm 4 mps 742 mmHg 89%
    21:00 -1°C° 0 mm 4 mps 742 mmHg 88%
    22:00 -1°C° 0 mm 4 mps 742 mmHg 87%
    23:00 -1°C° 0 mm 4 mps 742 mmHg 86%

    28 January, Monday

    Time Temperature Precipitation Wind Pressure Humidity
    00:00 -1°C° 0 mm 4 mps 742 mmHg 85%
    01:00 -1°C° 0 mm 4 mps 742 mmHg 84%
    02:00 -2°C° 0 mm 4 mps 741 mmHg 86%
    03:00 -2°C° 0 mm 4 mps 741 mmHg 87%
    04:00 -2°C° 0 mm 4 mps 740 mmHg 88%
    05:00 -2°C° 0 mm 4 mps 740 mmHg 88%
    06:00 -2°C° 0 mm 4 mps 740 mmHg 87%
    07:00 -2°C° 0 mm 4 mps 740 mmHg 87%
    08:00 -2°C° 0 mm 4 mps 741 mmHg 85%
    09:00 -1°C° 0 mm 5 mps 741 mmHg 84%
    10:00 -1°C° 0 mm 5 mps 741 mmHg 82%
    11:00 0°C° 0 mm 5 mps 741 mmHg 82%
    12:00 -1°C° 0 mm 6 mps 741 mmHg 81%
    13:00 +1°C° 0 mm 6 mps 741 mmHg 81%
    14:00 0°C° 0 mm 5 mps 741 mmHg 80%
    15:00 0°C° 0 mm 5 mps 741 mmHg 80%
    16:00 -1°C° 0 mm 5 mps 741 mmHg 80%
    17:00 -1°C° 0 mm 5 mps 741 mmHg 80%
    18:00 -1°C° 0 mm 5 mps 742 mmHg 80%
    19:00 -1°C° 0 mm 5 mps 742 mmHg 80%
    20:00 -1°C° 0 mm 5 mps 742 mmHg 82%
    21:00 -1°C° 0 mm 5 mps 742 mmHg 85%
    22:00 -1°C° 0 mm 4 mps 743 mmHg 87%
    23:00 -2°C° 0 mm 4 mps 743 mmHg 88%

    29 January, Tuesday

    Time Temperature Precipitation Wind Pressure Humidity
    00:00 -2°C° 0 mm 4 mps 743 mmHg 89%
    01:00 -2°C° 0 mm 4 mps 744 mmHg 91%
    02:00 -2°C° 0 mm 4 mps 744 mmHg 91%
    03:00 -1°C° 0 mm 3 mps 744 mmHg 90%
    04:00 -2°C° 0 mm 3 mps 744 mmHg 90%
    05:00 -2°C° 0 mm 3 mps 744 mmHg 91%
    06:00 -2°C° 0 mm 3 mps 744 mmHg 92%
    07:00 -3°C° 0 mm 2 mps 745 mmHg 93%
    08:00 -2°C° 0 mm 2 mps 745 mmHg 91%
    09:00 -2°C° 0 mm 3 mps 745 mmHg 89%
    10:00 -1°C° 0 mm 3 mps 745 mmHg 88%
    11:00 -1°C° 0 mm 3 mps 745 mmHg 87%
    12:00 +1°C° 0 mm 2 mps 745 mmHg 86%
    13:00 +1°C° 0 mm 2 mps 745 mmHg 85%
    14:00 +1°C° 0 mm 2 mps 745 mmHg 87%
    15:00 -1°C° 0 mm 2 mps 745 mmHg 88%
    16:00 +1°C° 0 mm 1 mps 745 mmHg 89%
    17:00 0°C° 0 mm 1 mps 745 mmHg 90%
    18:00 -2°C° 0 mm 2 mps 746 mmHg 90%
    19:00 -2°C° 0 mm 2 mps 746 mmHg 90%
    20:00 -2°C° 0 mm 2 mps 746 mmHg 90%
    21:00 -3°C° 0 mm 2 mps 746 mmHg 90%
    22:00 -3°C° 0 mm 2 mps 746 mmHg 89%
    23:00 -3°C° 0 mm 2 mps 746 mmHg 89%
    Show more